Location: Unspecified
(0.0000°N, 0.0000°E)
Time: 21:13:07
(UTC+01:00)

Hubble Space Telescope - Pass Details

Date: 27 October 2021
Orbit: 534 x 538 km, 28.5° (Epoch: 06 December)

Event Time Altitude Azimuth Distance (km) Brightness Sun altitude
Exits shadow 05:38:09 27° 107° (ESE) 1,055 2.8 -30.6°
Drops below altitude 10° 05:40:07 10° 113° (ESE) 1,783 4.3 -30.1°
Sets 05:42:23 0° 116° (ESE) 2,675 5.5 -29.5°
